Regional Weather Roundup
Issued by NWS

Home | Current Version | Previous Version | Graphics & Text | Print | Product List | Glossary On
Versions: 1 2 3 4 5 6 7 8 9 10 11 12 13 14 15 16 17 18 19 20 21 22 23 24 25 26 27 28 29 30 31 32 33 34 35 36 37 38 39 40 41 42 43 44 45 46 47 48 49 50
000
ASUS43 KTOP 071859
RWRKS

WEATHER ROUNDUP FOR KANSAS
NATIONAL WEATHER SERVICE GOODLAND KS
100 PM CST WED DEC 07 2016

NOTE:  "FAIR" INDICATES FEW OR NO CLOUDS BELOW 12,000 FEET WITH NO
SIGNIFICANT WEATHER AND/OR OBSTRUCTIONS TO VISIBILITY.

KSZ001>006-013>018-027>032-041>047-072000-
NORTHWEST KANSAS

CITY           SKY/WX    TMP DP  RH WIND       PRES   REMARKS
GOODLAND       LGT SNOW  16   9  74 N16       30.26S WCI   1
HAYS           PTSUNNY   22  17  81 NE17      30.32S WCI   8
HILL CITY      LGT SNOW  21  15  78 N13       30.34F WCI   9
$$

KSZ061>065-074>080-084>089-072000-
SOUTHWEST KANSAS

CITY           SKY/WX    TMP DP  RH WIND       PRES   REMARKS
DODGE CITY     LGT SNOW  22  18  85 N20       30.25S FOG     WCI   7
ELKHART          N/A     27  11  51 N9          N/A
GARDEN CITY    LGT SNOW  20  14  77 NE22      30.24S WCI   3
GREAT BEND     LGT SNOW  24  20  84 N18       30.31S FOG     WCI  10
LIBERAL        CLOUDY    30  14  51 NE14      30.19R WCI  20
$$

KSZ066>073-081>083-090>101-072000-
SOUTHEAST KANSAS

CITY           SKY/WX    TMP DP  RH WIND       PRES   REMARKS
CHANUTE        CLOUDY    34  19  54 N15       30.26F WCI  24
COFFEYVILLE    CLOUDY    37  20  50 N12       30.25S WCI  29
HUTCHINSON     LGT SNOW  27  21  78 N16G22    30.29S WCI  15
MEDICINE LODGE   N/A     34  18  52 NE16G24   30.22S WCI  24
NEWTON         FLURRIES  27  23  85 NE16G23   30.29R WCI  15
PARSONS        CLOUDY    37  20  50 N9        30.26F
WICHITA INTL   CLOUDY    32  18  56 NE17G25   30.26F WCI  21
WICHITA JABRA  CLOUDY    30  22  72 NE18      30.27R WCI  18
WINFIELD       CLOUDY    37  16  42 E13       30.24F WCI  29
$$

KSZ007>012-019>026-033>040-048>060-102>105-072000-
NORTHEAST KANSAS

CITY           SKY/WX    TMP DP  RH WIND       PRES   REMARKS
CONCORDIA      CLOUDY    24  14  65 N16       30.35F WCI  11
EMPORIA        LGT SNOW  27  23  85 N10       30.31R FOG     WCI  17
LAWRENCE       LGT SNOW  26  23  88 NW10      30.34S FOG     WCI  16
MANHATTAN      LGT SNOW  25  20  81 N8        30.35F
OLATHE IND     LGT SNOW  27  23  85 NW10      30.31F FOG     WCI  17
OLATHE EXE     LGT SNOW  26  23  88 N7        30.30F FOG
SALINA         LGT SNOW  25  21  85 N17       30.36S FOG     WCI  12
TOPEKA BILLARD LGT SNOW  26  20  77 N8        30.34F
TOPEKA FORBES  LGT SNOW  27  22  81 NW15      30.32F WCI  15
$$




USA.gov is the U.S. government's official web portal to all federal, state and local government web resources and services.